NORTHEAST SUFFOLK  -  Frost Advisory Frost Advisory        NORTHWEST SUFFOLK  -  Frost Advisory Frost Advisory        SOUTHEAST SUFFOLK  -  Frost Advisory Frost Advisory        SOUTHWEST SUFFOLK  -  Frost Advisory Frost Advisory      

Active alerts

Northwest Suffolk
  Details for Northwest Suffolk Frost Advisory
Southwest Suffolk
  Details for Southwest Suffolk Frost Advisory
Northeast Suffolk
  Details for Northeast Suffolk Frost Advisory
Southeast Suffolk
  Details for Southeast Suffolk Frost Advisory


WXM80 ListenWXM80 Stop

You find our weather info also at:

UK Metoffice

WeatherCloud

Weather Underground

Northeastern Weather Network

AWEKAS

Citizen Weather Observer Program (CWOP)

HAMweather, WeatherForYou, PWS Weather


Weather Underground History page Text

Daily Summary for July 14, 2017 Units:  Both    English   Metric
« Previous Day
Next Day »
Daily Weekly Monthly Yearly Custom
  High: Low: Average:
Temperature: 68.7 °F /  20.4 °C 64.4 °F /  18 °C 66.7 °F /  19.3 °C
Dew Point: 67.5 °F /  19.7 °C 62.6 °F /  17 °C 65.3 °F /  18.5 °C
Humidity: 98 % 93 % 96 %
Wind Speed: 2.7 mph /  4.3 km/h - 0.8 mph /  1.3 km/h
Wind Gust: 5.8 mph /  9.3 km/h - -
Wind:- - East
Pressure: 30.07 in /  1018.2 hPa 29.92 in /  1013.1 hPa -
Precipitation: 0.38 in /  9.65 mm    
Historical Graphs
 
 
Tabular Data for July 14, 2017
Time Temperature Dew Point Pressure Wind Wind Speed Wind Gust Humidity Rainfall Rate (Hourly)
00:04 68.7 °F /  20.4 °C 66.9 °F /  19.4 °C 30.01 in /  1016.1 hPa East 2.1 mph /  3.4 km/h 3.5 mph /  5.6 km/h 94 % 0.00 in /  0 mm
00:09 68.6 °F /  20.3 °C 66.8 °F /  19.3 °C 30.01 in /  1016.1 hPa East 2.3 mph /  3.7 km/h 3.5 mph /  5.6 km/h 94 % 0.00 in /  0 mm
00:14 68.5 °F /  20.3 °C 66.7 °F /  19.3 °C 30.01 in /  1016.1 hPa East 2.6 mph /  4.2 km/h 4.6 mph /  7.4 km/h 94 % 0.00 in /  0 mm
00:19 68.4 °F /  20.2 °C 66.6 °F /  19.2 °C 30.01 in /  1016.1 hPa East 1.9 mph /  3.1 km/h 3.5 mph /  5.6 km/h 94 % 0.00 in /  0 mm
00:24 68.3 °F /  20.2 °C 66.5 °F /  19.2 °C 30.01 in /  1016.1 hPa ESE 2.3 mph /  3.7 km/h 3.5 mph /  5.6 km/h 94 % 0.00 in /  0 mm
00:29 68.2 °F /  20.1 °C 66.4 °F /  19.1 °C 30.01 in /  1016.1 hPa East 2.6 mph /  4.2 km/h 4.6 mph /  7.4 km/h 94 % 0.00 in /  0 mm
00:34 68.1 °F /  20.1 °C 66.3 °F /  19.1 °C 30.01 in /  1016.1 hPa East 1.8 mph /  2.9 km/h 3.5 mph /  5.6 km/h 94 % 0.00 in /  0 mm
00:39 68.0 °F /  20 °C 66.2 °F /  19 °C 30.00 in /  1015.8 hPa East 2.4 mph /  3.9 km/h 3.5 mph /  5.6 km/h 94 % 0.00 in /  0 mm
00:41 68.0 °F /  20 °C 66.2 °F /  19 °C 30.00 in /  1015.8 hPa ESE 1.5 mph /  2.4 km/h 3.5 mph /  5.6 km/h 94 % 0.00 in /  0 mm
00:46 67.9 °F /  19.9 °C 66.1 °F /  18.9 °C 30.00 in /  1015.8 hPa East 2.0 mph /  3.2 km/h 4.6 mph /  7.4 km/h 94 % 0.00 in /  0 mm
00:51 67.7 °F /  19.8 °C 65.9 °F /  18.8 °C 30.00 in /  1015.8 hPa East 2.2 mph /  3.5 km/h 4.6 mph /  7.4 km/h 94 % 0.00 in /  0 mm
00:56 67.6 °F /  19.8 °C 65.8 °F /  18.8 °C 30.00 in /  1015.8 hPa ESE 1.0 mph /  1.6 km/h 3.5 mph /  5.6 km/h 94 % 0.00 in /  0 mm
01:01 67.3 °F /  19.6 °C 65.5 °F /  18.6 °C 30.00 in /  1015.8 hPa ESE 2.1 mph /  3.4 km/h 3.5 mph /  5.6 km/h 94 % 0.00 in /  0 mm
01:06 67.1 °F /  19.5 °C 65.3 °F /  18.5 °C 30.00 in /  1015.8 hPa East 2.4 mph /  3.9 km/h 3.5 mph /  5.6 km/h 94 % 0.00 in /  0 mm
01:11 67.0 °F /  19.4 °C 65.2 °F /  18.4 °C 30.00 in /  1015.8 hPa East 1.8 mph /  2.9 km/h 3.5 mph /  5.6 km/h 94 % 0.00 in /  0 mm
01:16 66.9 °F /  19.4 °C 65.1 °F /  18.4 °C 30.00 in /  1015.8 hPa East 1.8 mph /  2.9 km/h 3.5 mph /  5.6 km/h 94 % 0.00 in /  0 mm
01:21 66.7 °F /  19.3 °C 64.9 °F /  18.3 °C 30.00 in /  1015.8 hPa East 2.2 mph /  3.5 km/h 3.5 mph /  5.6 km/h 94 % 0.00 in /  0 mm
01:26 66.6 °F /  19.2 °C 64.8 °F /  18.2 °C 30.00 in /  1015.8 hPa East 1.4 mph /  2.3 km/h 2.3 mph /  3.7 km/h 94 % 0.00 in /  0 mm
01:31 66.6 °F /  19.2 °C 64.8 °F /  18.2 °C 30.00 in /  1015.8 hPa East 1.9 mph /  3.1 km/h 3.5 mph /  5.6 km/h 94 % 0.00 in /  0 mm
01:36 66.6 °F /  19.2 °C 64.8 °F /  18.2 °C 30.00 in /  1015.8 hPa East 1.9 mph /  3.1 km/h 3.5 mph /  5.6 km/h 94 % 0.00 in /  0 mm
01:41 66.5 °F /  19.2 °C 64.7 °F /  18.2 °C 30.00 in /  1015.8 hPa ESE 1.2 mph /  1.9 km/h 3.5 mph /  5.6 km/h 94 % 0.00 in /  0 mm
01:46 66.5 °F /  19.2 °C 64.7 °F /  18.2 °C 30.00 in /  1015.8 hPa ESE 1.2 mph /  1.9 km/h 2.3 mph /  3.7 km/h 94 % 0.00 in /  0 mm
01:51 66.5 °F /  19.2 °C 64.7 °F /  18.2 °C 30.00 in /  1015.8 hPa East 1.3 mph /  2.1 km/h 3.5 mph /  5.6 km/h 94 % 0.00 in /  0 mm
01:57 66.4 °F /  19.1 °C 64.6 °F /  18.1 °C 30.01 in /  1016.1 hPa East 0.5 mph /  0.8 km/h 2.3 mph /  3.7 km/h 94 % 0.00 in /  0 mm
02:01 66.4 °F /  19.1 °C 64.6 °F /  18.1 °C 30.01 in /  1016.1 hPa East 1.0 mph /  1.6 km/h 2.3 mph /  3.7 km/h 94 % 0.00 in /  0 mm
02:07 66.3 °F /  19.1 °C 64.5 °F /  18.1 °C 30.01 in /  1016.1 hPa East 1.2 mph /  1.9 km/h 3.5 mph /  5.6 km/h 94 % 0.00 in /  0 mm
02:12 66.3 °F /  19.1 °C 64.5 °F /  18.1 °C 30.01 in /  1016.1 hPa East 1.5 mph /  2.4 km/h 3.5 mph /  5.6 km/h 94 % 0.00 in /  0 mm
02:17 66.2 °F /  19 °C 64.4 °F /  18 °C 30.01 in /  1016.1 hPa East 1.7 mph /  2.7 km/h 3.5 mph /  5.6 km/h 94 % 0.00 in /  0 mm
02:22 66.1 °F /  18.9 °C 64.3 °F /  17.9 °C 30.00 in /  1015.8 hPa ESE 1.8 mph /  2.9 km/h 3.5 mph /  5.6 km/h 94 % 0.00 in /  0 mm
02:27 66.1 °F /  18.9 °C 64.3 °F /  17.9 °C 30.01 in /  1016.1 hPa East 1.0 mph /  1.6 km/h 2.3 mph /  3.7 km/h 94 % 0.00 in /  0 mm
02:32 66.0 °F /  18.9 °C 64.2 °F /  17.9 °C 30.01 in /  1016.1 hPa East 1.5 mph /  2.4 km/h 3.5 mph /  5.6 km/h 94 % 0.00 in /  0 mm
02:37 66.0 °F /  18.9 °C 63.9 °F /  17.7 °C 30.01 in /  1016.1 hPa ESE 1.2 mph /  1.9 km/h 2.3 mph /  3.7 km/h 93 % 0.00 in /  0 mm
02:42 65.9 °F /  18.8 °C 63.8 °F /  17.7 °C 30.01 in /  1016.1 hPa ESE 0.3 mph /  0.5 km/h 1.2 mph /  1.9 km/h 93 % 0.00 in /  0 mm
02:47 65.8 °F /  18.8 °C 63.7 °F /  17.6 °C 30.01 in /  1016.1 hPa ESE 1.0 mph /  1.6 km/h 2.3 mph /  3.7 km/h 93 % 0.00 in /  0 mm
02:52 65.8 °F /  18.8 °C 63.7 °F /  17.6 °C 30.01 in /  1016.1 hPa East 1.2 mph /  1.9 km/h 3.0 mph /  4.8 km/h 93 % 0.00 in /  0 mm
02:57 65.8 °F /  18.8 °C 63.7 °F /  17.6 °C 30.02 in /  1016.5 hPa ESE 1.4 mph /  2.3 km/h 3.5 mph /  5.6 km/h 93 % 0.00 in /  0 mm
03:02 65.7 °F /  18.7 °C 63.6 °F /  17.6 °C 30.02 in /  1016.5 hPa ESE 0.8 mph /  1.3 km/h 3.5 mph /  5.6 km/h 93 % 0.00 in /  0 mm
03:07 65.7 °F /  18.7 °C 63.6 °F /  17.6 °C 30.02 in /  1016.5 hPa ESE 0.6 mph /  1 km/h 2.3 mph /  3.7 km/h 93 % 0.00 in /  0 mm
03:12 65.7 °F /  18.7 °C 63.6 °F /  17.6 °C 30.02 in /  1016.5 hPa ESE 0.7 mph /  1.1 km/h 2.3 mph /  3.7 km/h 93 % 0.00 in /  0 mm
03:18 65.7 °F /  18.7 °C 63.6 °F /  17.6 °C 30.02 in /  1016.5 hPa ENE 1.6 mph /  2.6 km/h 3.5 mph /  5.6 km/h 93 % 0.00 in /  0 mm
03:23 65.6 °F /  18.7 °C 63.5 °F /  17.5 °C 30.02 in /  1016.5 hPa ENE 2.2 mph /  3.5 km/h 4.6 mph /  7.4 km/h 93 % 0.00 in /  0 mm
03:28 65.6 °F /  18.7 °C 63.5 °F /  17.5 °C 30.02 in /  1016.5 hPa ENE 1.7 mph /  2.7 km/h 3.5 mph /  5.6 km/h 93 % 0.00 in /  0 mm
03:33 65.6 °F /  18.7 °C 63.5 °F /  17.5 °C 30.02 in /  1016.5 hPa ENE 2.0 mph /  3.2 km/h 3.5 mph /  5.6 km/h 93 % 0.00 in /  0 mm
03:38 65.5 °F /  18.6 °C 63.4 °F /  17.4 °C 30.03 in /  1016.8 hPa East 1.7 mph /  2.7 km/h 3.5 mph /  5.6 km/h 93 % 0.00 in /  0 mm
03:43 65.4 °F /  18.6 °C 63.3 °F /  17.4 °C 30.03 in /  1016.8 hPa East 1.9 mph /  3.1 km/h 4.6 mph /  7.4 km/h 93 % 0.00 in /  0 mm
03:48 65.4 °F /  18.6 °C 63.3 °F /  17.4 °C 30.02 in /  1016.5 hPa East 2.5 mph /  4 km/h 3.5 mph /  5.6 km/h 93 % 0.00 in /  0 mm
03:53 65.4 °F /  18.6 °C 63.3 °F /  17.4 °C 30.02 in /  1016.5 hPa East 1.4 mph /  2.3 km/h 2.3 mph /  3.7 km/h 93 % 0.00 in /  0 mm
03:58 65.2 °F /  18.4 °C 63.1 °F /  17.3 °C 30.02 in /  1016.5 hPa ESE 1.8 mph /  2.9 km/h 3.5 mph /  5.6 km/h 93 % 0.00 in /  0 mm
04:03 65.2 °F /  18.4 °C 63.1 °F /  17.3 °C 30.02 in /  1016.5 hPa East 2.0 mph /  3.2 km/h 3.5 mph /  5.6 km/h 93 % 0.00 in /  0 mm
04:08 65.2 °F /  18.4 °C 63.1 °F /  17.3 °C 30.02 in /  1016.5 hPa East 2.1 mph /  3.4 km/h 3.5 mph /  5.6 km/h 93 % 0.00 in /  0 mm
04:13 65.2 °F /  18.4 °C 63.1 °F /  17.3 °C 30.02 in /  1016.5 hPa ENE 2.0 mph /  3.2 km/h 3.5 mph /  5.6 km/h 93 % 0.00 in /  0 mm
04:18 65.1 °F /  18.4 °C 63.0 °F /  17.2 °C 30.02 in /  1016.5 hPa ENE 1.1 mph /  1.8 km/h 2.3 mph /  3.7 km/h 93 % 0.00 in /  0 mm
04:23 65.0 °F /  18.3 °C 62.9 °F /  17.2 °C 30.02 in /  1016.5 hPa East 2.3 mph /  3.7 km/h 3.5 mph /  5.6 km/h 93 % 0.00 in /  0 mm
04:28 65.0 °F /  18.3 °C 62.9 °F /  17.2 °C 30.02 in /  1016.5 hPa East 1.7 mph /  2.7 km/h 3.5 mph /  5.6 km/h 93 % 0.00 in /  0 mm
04:33 65.0 °F /  18.3 °C 62.9 °F /  17.2 °C 30.02 in /  1016.5 hPa ENE 2.5 mph /  4 km/h 4.0 mph /  6.4 km/h 93 % 0.00 in /  0 mm
04:38 64.9 °F /  18.3 °C 62.8 °F /  17.1 °C 30.02 in /  1016.5 hPa East 1.4 mph /  2.3 km/h 3.5 mph /  5.6 km/h 93 % 0.00 in /  0 mm
04:43 64.8 °F /  18.2 °C 62.7 °F /  17.1 °C 30.02 in /  1016.5 hPa East 2.2 mph /  3.5 km/h 4.6 mph /  7.4 km/h 93 % 0.00 in /  0 mm
04:48 64.8 °F /  18.2 °C 63.0 °F /  17.2 °C 30.02 in /  1016.5 hPa ENE 2.4 mph /  3.9 km/h 4.0 mph /  6.4 km/h 94 % 0.00 in /  0 mm
04:53 64.8 °F /  18.2 °C 62.7 °F /  17.1 °C 30.02 in /  1016.5 hPa East 1.9 mph /  3.1 km/h 3.5 mph /  5.6 km/h 93 % 0.00 in /  0 mm
04:59 64.7 °F /  18.2 °C 62.9 °F /  17.2 °C 30.02 in /  1016.5 hPa East 1.1 mph /  1.8 km/h 3.0 mph /  4.8 km/h 94 % 0.00 in /  0 mm
05:04 64.7 °F /  18.2 °C 62.9 °F /  17.2 °C 30.02 in /  1016.5 hPa East 2.2 mph /  3.5 km/h 3.5 mph /  5.6 km/h 94 % 0.00 in /  0 mm
05:09 64.7 °F /  18.2 °C 62.9 °F /  17.2 °C 30.02 in /  1016.5 hPa East 2.3 mph /  3.7 km/h 3.5 mph /  5.6 km/h 94 % 0.00 in /  0 mm
05:14 64.6 °F /  18.1 °C 62.8 °F /  17.1 °C 30.02 in /  1016.5 hPa East 1.5 mph /  2.4 km/h 3.5 mph /  5.6 km/h 94 % 0.00 in /  0 mm
05:19 64.6 °F /  18.1 °C 62.8 °F /  17.1 °C 30.02 in /  1016.5 hPa ENE 2.5 mph /  4 km/h 4.6 mph /  7.4 km/h 94 % 0.00 in /  0 mm
05:24 64.5 °F /  18.1 °C 62.7 °F /  17.1 °C 30.02 in /  1016.5 hPa ENE 2.5 mph /  4 km/h 3.5 mph /  5.6 km/h 94 % 0.00 in /  0 mm
05:29 64.5 °F /  18.1 °C 62.7 °F /  17.1 °C 30.02 in /  1016.5 hPa ENE 2.0 mph /  3.2 km/h 3.5 mph /  5.6 km/h 94 % 0.00 in /  0 mm
05:34 64.4 °F /  18 °C 62.6 °F /  17 °C 30.02 in /  1016.5 hPa ENE 2.0 mph /  3.2 km/h 3.5 mph /  5.6 km/h 94 % 0.00 in /  0 mm
05:39 64.5 °F /  18.1 °C 62.7 °F /  17.1 °C 30.02 in /  1016.5 hPa East 2.3 mph /  3.7 km/h 3.5 mph /  5.6 km/h 94 % 0.00 in /  0 mm
05:44 64.4 °F /  18 °C 62.6 °F /  17 °C 30.03 in /  1016.8 hPa East 2.4 mph /  3.9 km/h 3.5 mph /  5.6 km/h 94 % 0.00 in /  0 mm
05:49 64.4 °F /  18 °C 62.6 °F /  17 °C 30.03 in /  1016.8 hPa ESE 1.8 mph /  2.9 km/h 3.0 mph /  4.8 km/h 94 % 0.00 in /  0 mm
05:54 64.4 °F /  18 °C 62.6 °F /  17 °C 30.04 in /  1017.2 hPa East 1.3 mph /  2.1 km/h 2.3 mph /  3.7 km/h 94 % 0.00 in /  0 mm
05:59 64.4 °F /  18 °C 62.6 °F /  17 °C 30.03 in /  1016.8 hPa ENE 1.7 mph /  2.7 km/h 3.5 mph /  5.6 km/h 94 % 0.00 in /  0 mm
06:04 64.4 °F /  18 °C 62.6 °F /  17 °C 30.03 in /  1016.8 hPa East 1.4 mph /  2.3 km/h 3.5 mph /  5.6 km/h 94 % 0.00 in /  0 mm
06:09 64.4 °F /  18 °C 62.6 °F /  17 °C 30.03 in /  1016.8 hPa East 1.5 mph /  2.4 km/h 2.3 mph /  3.7 km/h 94 % 0.00 in /  0 mm
06:14 64.4 °F /  18 °C 62.6 °F /  17 °C 30.04 in /  1017.2 hPa ENE 0.9 mph /  1.4 km/h 2.3 mph /  3.7 km/h 94 % 0.00 in /  0 mm
06:19 64.4 °F /  18 °C 62.6 °F /  17 °C 30.04 in /  1017.2 hPa East 0.3 mph /  0.5 km/h 2.3 mph /  3.7 km/h 94 % 0.00 in /  0 mm
06:24 64.4 °F /  18 °C 62.6 °F /  17 °C 30.04 in /  1017.2 hPa East 1.0 mph /  1.6 km/h 2.3 mph /  3.7 km/h 94 % 0.00 in /  0 mm
06:29 64.4 °F /  18 °C 62.6 °F /  17 °C 30.04 in /  1017.2 hPa East 1.9 mph /  3.1 km/h 4.6 mph /  7.4 km/h 94 % 0.00 in /  0 mm
06:34 64.4 °F /  18 °C 62.6 °F /  17 °C 30.04 in /  1017.2 hPa East 1.7 mph /  2.7 km/h 2.3 mph /  3.7 km/h 94 % 0.00 in /  0 mm
06:39 64.4 °F /  18 °C 62.6 °F /  17 °C 30.04 in /  1017.2 hPa ENE 0.9 mph /  1.4 km/h 4.6 mph /  7.4 km/h 94 % 0.00 in /  0 mm
06:44 64.4 °F /  18 °C 62.6 °F /  17 °C 30.04 in /  1017.2 hPa East 1.2 mph /  1.9 km/h 2.3 mph /  3.7 km/h 94 % 0.00 in /  0 mm
06:49 64.4 °F /  18 °C 62.6 °F /  17 °C 30.04 in /  1017.2 hPa ENE 1.1 mph /  1.8 km/h 3.5 mph /  5.6 km/h 94 % 0.00 in /  0 mm
06:54 64.4 °F /  18 °C 62.6 °F /  17 °C 30.04 in /  1017.2 hPa East 0.9 mph /  1.4 km/h 2.3 mph /  3.7 km/h 94 % 0.00 in /  0 mm
07:00 64.5 °F /  18.1 °C 62.7 °F /  17.1 °C 30.04 in /  1017.2 hPa East 1.2 mph /  1.9 km/h 3.5 mph /  5.6 km/h 94 % 0.00 in /  0 mm
07:05 64.5 °F /  18.1 °C 62.7 °F /  17.1 °C 30.04 in /  1017.2 hPa ENE 1.0 mph /  1.6 km/h 2.3 mph /  3.7 km/h 94 % 0.00 in /  0 mm
07:10 64.5 °F /  18.1 °C 63.0 °F /  17.2 °C 30.04 in /  1017.2 hPa ENE 0.3 mph /  0.5 km/h 2.3 mph /  3.7 km/h 95 % 0.00 in /  0 mm
07:15 64.5 °F /  18.1 °C 63.0 °F /  17.2 °C 30.05 in /  1017.5 hPa ENE 0.4 mph /  0.6 km/h 1.2 mph /  1.9 km/h 95 % 0.00 in /  0 mm
07:20 64.5 °F /  18.1 °C 63.0 °F /  17.2 °C 30.05 in /  1017.5 hPa ENE 0.2 mph /  0.3 km/h 1.2 mph /  1.9 km/h 95 % 0.00 in /  0 mm
07:25 64.6 °F /  18.1 °C 63.1 °F /  17.3 °C 30.05 in /  1017.5 hPa ENE 0.4 mph /  0.6 km/h 1.2 mph /  1.9 km/h 95 % 0.00 in /  0 mm
07:30 64.5 °F /  18.1 °C 63.0 °F /  17.2 °C 30.06 in /  1017.8 hPa Calm   1.2 mph /  1.9 km/h 95 % 0.00 in /  0 mm
07:35 64.5 °F /  18.1 °C 63.0 °F /  17.2 °C 30.06 in /  1017.8 hPa East 0.1 mph /  0.2 km/h 1.2 mph /  1.9 km/h 95 % 0.00 in /  0 mm
07:40 64.5 °F /  18.1 °C 63.0 °F /  17.2 °C 30.06 in /  1017.8 hPa East 1.2 mph /  1.9 km/h 2.3 mph /  3.7 km/h 95 % 0.00 in /  0 mm
07:45 64.5 °F /  18.1 °C 63.0 °F /  17.2 °C 30.07 in /  1018.2 hPa East 0.1 mph /  0.2 km/h 1.2 mph /  1.9 km/h 95 % 0.01 in /  0.25 mm
07:50 64.5 °F /  18.1 °C 63.0 °F /  17.2 °C 30.06 in /  1017.8 hPa NE 1.1 mph /  1.8 km/h 2.3 mph /  3.7 km/h 95 % 0.01 in /  0.25 mm
07:55 64.5 °F /  18.1 °C 63.0 °F /  17.2 °C 30.06 in /  1017.8 hPa ENE 0.8 mph /  1.3 km/h 3.5 mph /  5.6 km/h 95 % 0.01 in /  0.25 mm
08:00 64.5 °F /  18.1 °C 63.0 °F /  17.2 °C 30.05 in /  1017.5 hPa ENE 1.2 mph /  1.9 km/h 2.3 mph /  3.7 km/h 95 % 0.01 in /  0.25 mm
08:05 64.5 °F /  18.1 °C 63.0 °F /  17.2 °C 30.06 in /  1017.8 hPa ENE 0.1 mph /  0.2 km/h 2.3 mph /  3.7 km/h 95 % 0.02 in /  0.51 mm
08:10 64.5 °F /  18.1 °C 63.0 °F /  17.2 °C 30.06 in /  1017.8 hPa ENE 0.6 mph /  1 km/h 2.0 mph /  3.2 km/h 95 % 0.02 in /  0.51 mm
08:15 64.6 °F /  18.1 °C 63.1 °F /  17.3 °C 30.06 in /  1017.8 hPa ENE 0.6 mph /  1 km/h 2.3 mph /  3.7 km/h 95 % 0.03 in /  0.76 mm
08:20 64.5 °F /  18.1 °C 63.0 °F /  17.2 °C 30.06 in /  1017.8 hPa ENE 1.0 mph /  1.6 km/h 2.3 mph /  3.7 km/h 95 % 0.03 in /  0.76 mm
08:25 64.5 °F /  18.1 °C 63.0 °F /  17.2 °C 30.06 in /  1017.8 hPa ENE 1.1 mph /  1.8 km/h 2.3 mph /  3.7 km/h 95 % 0.04 in /  1.02 mm
08:30 64.6 °F /  18.1 °C 63.4 °F /  17.4 °C 30.05 in /  1017.5 hPa East 1.3 mph /  2.1 km/h 2.3 mph /  3.7 km/h 96 % 0.04 in /  1.02 mm
08:35 64.6 °F /  18.1 °C 63.4 °F /  17.4 °C 30.05 in /  1017.5 hPa East 1.5 mph /  2.4 km/h 3.0 mph /  4.8 km/h 96 % 0.06 in /  1.52 mm
08:40 64.6 °F /  18.1 °C 63.4 °F /  17.4 °C 30.05 in /  1017.5 hPa East 1.0 mph /  1.6 km/h 2.3 mph /  3.7 km/h 96 % 0.06 in /  1.52 mm
08:45 64.6 °F /  18.1 °C 63.4 °F /  17.4 °C 30.05 in /  1017.5 hPa East 1.6 mph /  2.6 km/h 2.3 mph /  3.7 km/h 96 % 0.06 in /  1.52 mm
08:50 64.6 °F /  18.1 °C 63.4 °F /  17.4 °C 30.04 in /  1017.2 hPa East 1.8 mph /  2.9 km/h 2.3 mph /  3.7 km/h 96 % 0.07 in /  1.78 mm
08:55 64.7 °F /  18.2 °C 63.5 °F /  17.5 °C 30.05 in /  1017.5 hPa East 1.2 mph /  1.9 km/h 2.3 mph /  3.7 km/h 96 % 0.07 in /  1.78 mm
09:00 64.7 °F /  18.2 °C 63.5 °F /  17.5 °C 30.04 in /  1017.2 hPa East 1.6 mph /  2.6 km/h 3.5 mph /  5.6 km/h 96 % 0.07 in /  1.78 mm
09:05 64.7 °F /  18.2 °C 63.5 °F /  17.5 °C 30.04 in /  1017.2 hPa East 1.4 mph /  2.3 km/h 2.3 mph /  3.7 km/h 96 % 0.07 in /  1.78 mm
09:10 64.7 °F /  18.2 °C 63.5 °F /  17.5 °C 30.04 in /  1017.2 hPa East 1.5 mph /  2.4 km/h 3.5 mph /  5.6 km/h 96 % 0.07 in /  1.78 mm
09:13 64.8 °F /  18.2 °C 63.6 °F /  17.6 °C 30.04 in /  1017.2 hPa East 0.6 mph /  1 km/h 2.3 mph /  3.7 km/h 96 % 0.07 in /  1.78 mm
09:18 64.8 °F /  18.2 °C 63.6 °F /  17.6 °C 30.04 in /  1017.2 hPa East 1.3 mph /  2.1 km/h 2.3 mph /  3.7 km/h 96 % 0.06 in /  1.52 mm
09:23 64.8 °F /  18.2 °C 63.6 °F /  17.6 °C 30.04 in /  1017.2 hPa East 0.7 mph /  1.1 km/h 2.3 mph /  3.7 km/h 96 % 0.05 in /  1.27 mm
09:28 64.8 °F /  18.2 °C 63.6 °F /  17.6 °C 30.05 in /  1017.5 hPa ENE 1.6 mph /  2.6 km/h 3.5 mph /  5.6 km/h 96 % 0.06 in /  1.52 mm
09:33 64.8 °F /  18.2 °C 63.6 °F /  17.6 °C 30.05 in /  1017.5 hPa ENE 0.9 mph /  1.4 km/h 2.3 mph /  3.7 km/h 96 % 0.05 in /  1.27 mm
09:38 64.7 °F /  18.2 °C 63.5 °F /  17.5 °C 30.05 in /  1017.5 hPa NE 1.6 mph /  2.6 km/h 3.5 mph /  5.6 km/h 96 % 0.05 in /  1.27 mm
09:43 64.7 °F /  18.2 °C 63.5 °F /  17.5 °C 30.05 in /  1017.5 hPa NE 0.2 mph /  0.3 km/h 1.2 mph /  1.9 km/h 96 % 0.04 in /  1.02 mm
09:48 64.7 °F /  18.2 °C 63.8 °F /  17.7 °C 30.05 in /  1017.5 hPa ENE 1.9 mph /  3.1 km/h 3.5 mph /  5.6 km/h 97 % 0.05 in /  1.27 mm
09:53 64.6 °F /  18.1 °C 63.7 °F /  17.6 °C 30.06 in /  1017.8 hPa NE 1.3 mph /  2.1 km/h 3.5 mph /  5.6 km/h 97 % 0.04 in /  1.02 mm
09:58 64.5 °F /  18.1 °C 63.3 °F /  17.4 °C 30.06 in /  1017.8 hPa NE 1.5 mph /  2.4 km/h 2.3 mph /  3.7 km/h 96 % 0.05 in /  1.27 mm
10:00 64.5 °F /  18.1 °C 63.3 °F /  17.4 °C 30.06 in /  1017.8 hPa NE 0.4 mph /  0.6 km/h 3.5 mph /  5.6 km/h 96 % 0.05 in /  1.27 mm
10:05 64.5 °F /  18.1 °C 63.3 °F /  17.4 °C 30.06 in /  1017.8 hPa Calm   3.5 mph /  5.6 km/h 96 % 0.05 in /  1.27 mm
10:10 64.6 °F /  18.1 °C 63.7 °F /  17.6 °C 30.06 in /  1017.8 hPa NE 0.3 mph /  0.5 km/h 2.3 mph /  3.7 km/h 97 % 0.06 in /  1.52 mm
10:16 64.8 °F /  18.2 °C 63.9 °F /  17.7 °C 30.06 in /  1017.8 hPa NE 0.3 mph /  0.5 km/h 1.2 mph /  1.9 km/h 97 % 0.06 in /  1.52 mm
10:21 65.1 °F /  18.4 °C 64.2 °F /  17.9 °C 30.05 in /  1017.5 hPa Calm   2.0 mph /  3.2 km/h 97 % 0.00 in /  0 mm
10:26 65.4 °F /  18.6 °C 64.5 °F /  18.1 °C 30.05 in /  1017.5 hPa NE 1.0 mph /  1.6 km/h 2.0 mph /  3.2 km/h 97 % 0.00 in /  0 mm
10:31 65.8 °F /  18.8 °C 64.9 °F /  18.3 °C 30.05 in /  1017.5 hPa Calm   2.0 mph /  3.2 km/h 97 % 0.00 in /  0 mm
10:36 66.2 °F /  19 °C 65.6 °F /  18.7 °C 30.05 in /  1017.5 hPa ENE 1.0 mph /  1.6 km/h 3.0 mph /  4.8 km/h 98 % 0.01 in /  0.25 mm
10:41 66.3 °F /  19.1 °C 65.4 °F /  18.6 °C 30.04 in /  1017.2 hPa East 1.0 mph /  1.6 km/h 2.0 mph /  3.2 km/h 97 % 0.00 in /  0 mm
10:46 66.4 °F /  19.1 °C 65.5 °F /  18.6 °C 30.05 in /  1017.5 hPa Calm   2.0 mph /  3.2 km/h 97 % 0.00 in /  0 mm
10:51 66.4 °F /  19.1 °C 65.5 °F /  18.6 °C 30.05 in /  1017.5 hPa Calm   1.2 mph /  1.9 km/h 97 % 0.07 in /  1.78 mm
10:56 66.4 °F /  19.1 °C 65.5 °F /  18.6 °C 30.05 in /  1017.5 hPa ENE 0.4 mph /  0.6 km/h 1.2 mph /  1.9 km/h 97 % 0.06 in /  1.52 mm
11:01 66.5 °F /  19.2 °C 65.6 °F /  18.7 °C 30.05 in /  1017.5 hPa ENE 0.1 mph /  0.2 km/h 1.2 mph /  1.9 km/h 97 % 0.07 in /  1.78 mm
11:06 66.5 °F /  19.2 °C 65.6 °F /  18.7 °C 30.05 in /  1017.5 hPa ENE 0.4 mph /  0.6 km/h 2.0 mph /  3.2 km/h 97 % 0.06 in /  1.52 mm
11:11 66.6 °F /  19.2 °C 65.7 °F /  18.7 °C 30.05 in /  1017.5 hPa ENE 0.1 mph /  0.2 km/h 1.2 mph /  1.9 km/h 97 % 0.05 in /  1.27 mm
11:16 66.6 °F /  19.2 °C 65.7 °F /  18.7 °C 30.04 in /  1017.2 hPa Calm   2.0 mph /  3.2 km/h 97 % 0.00 in /  0 mm
11:21 66.7 °F /  19.3 °C 65.8 °F /  18.8 °C 30.04 in /  1017.2 hPa Calm   1.0 mph /  1.6 km/h 97 % 0.00 in /  0 mm
11:26 66.9 °F /  19.4 °C 66.0 °F /  18.9 °C 30.04 in /  1017.2 hPa Calm   1.0 mph /  1.6 km/h 97 % 0.00 in /  0 mm
11:31 67.1 °F /  19.5 °C 66.2 °F /  19 °C 30.03 in /  1016.8 hPa Calm   2.0 mph /  3.2 km/h 97 % 0.00 in /  0 mm
11:36 67.2 °F /  19.6 °C 66.3 °F /  19.1 °C 30.02 in /  1016.5 hPa Calm   1.0 mph /  1.6 km/h 97 % 0.00 in /  0 mm
11:41 67.3 °F /  19.6 °C 66.5 °F /  19.2 °C 30.02 in /  1016.5 hPa Calm   3.0 mph /  4.8 km/h 97 % 0.00 in /  0 mm
11:46 67.3 °F /  19.6 °C 66.4 °F /  19.1 °C 30.02 in /  1016.5 hPa ESE 1.0 mph /  1.6 km/h 3.0 mph /  4.8 km/h 97 % 0.00 in /  0 mm
11:56 67.5 °F /  19.7 °C 66.6 °F /  19.2 °C 30.02 in /  1016.5 hPa Calm   1.0 mph /  1.6 km/h 97 % 0.00 in /  0 mm
12:01 67.8 °F /  19.9 °C 66.9 °F /  19.4 °C 30.02 in /  1016.5 hPa SE 0.1 mph /  0.2 km/h 2.3 mph /  3.7 km/h 97 % 0.03 in /  0.76 mm
12:06 67.9 °F /  19.9 °C 67.1 °F /  19.5 °C 30.02 in /  1016.5 hPa Calm   3.0 mph /  4.8 km/h 97 % 0.00 in /  0 mm
12:11 68.1 °F /  20.1 °C 67.2 °F /  19.6 °C 30.02 in /  1016.5 hPa Calm   1.0 mph /  1.6 km/h 97 % 0.00 in /  0 mm
12:16 68.0 °F /  20 °C 67.1 °F /  19.5 °C 30.02 in /  1016.5 hPa SSE 1.0 mph /  1.6 km/h 4.0 mph /  6.4 km/h 97 % 0.00 in /  0 mm
12:21 68.4 °F /  20.2 °C 67.5 °F /  19.7 °C 30.02 in /  1016.5 hPa SE 2.3 mph /  3.7 km/h 2.3 mph /  3.7 km/h 97 % 0.04 in /  1.02 mm
12:26 68.3 °F /  20.2 °C 67.4 °F /  19.7 °C 30.02 in /  1016.5 hPa SE 1.4 mph /  2.3 km/h 3.5 mph /  5.6 km/h 97 % 0.04 in /  1.02 mm
12:31 68.3 °F /  20.2 °C 67.4 °F /  19.7 °C 30.02 in /  1016.5 hPa SSE 0.6 mph /  1 km/h 3.5 mph /  5.6 km/h 97 % 0.03 in /  0.76 mm
12:36 68.2 °F /  20.1 °C 67.0 °F /  19.4 °C 30.02 in /  1016.5 hPa ESE 1.4 mph /  2.3 km/h 4.6 mph /  7.4 km/h 96 % 0.03 in /  0.76 mm
12:41 68.1 °F /  20.1 °C 66.9 °F /  19.4 °C 30.02 in /  1016.5 hPa Calm   1.2 mph /  1.9 km/h 96 % 0.04 in /  1.02 mm
12:46 68.1 °F /  20.1 °C 66.9 °F /  19.4 °C 30.02 in /  1016.5 hPa SE 1.0 mph /  1.6 km/h 4.6 mph /  7.4 km/h 96 % 0.03 in /  0.76 mm
12:51 68.0 °F /  20 °C 66.5 °F /  19.2 °C 30.02 in /  1016.5 hPa SE 2.1 mph /  3.4 km/h 3.5 mph /  5.6 km/h 95 % 0.03 in /  0.76 mm
12:54 67.9 °F /  19.9 °C 66.4 °F /  19.1 °C 30.02 in /  1016.5 hPa SE 2.7 mph /  4.3 km/h 5.8 mph /  9.3 km/h 95 % 0.03 in /  0.76 mm
12:59 67.9 °F /  19.9 °C 66.4 °F /  19.1 °C 30.02 in /  1016.5 hPa SE 0.1 mph /  0.2 km/h 1.2 mph /  1.9 km/h 95 % 0.03 in /  0.76 mm
13:04 68.0 °F /  20 °C 66.5 °F /  19.2 °C 30.02 in /  1016.5 hPa SE 0.1 mph /  0.2 km/h 3.5 mph /  5.6 km/h 95 % 0.03 in /  0.76 mm
13:09 68.0 °F /  20 °C 66.5 °F /  19.2 °C 30.02 in /  1016.5 hPa SE 0.1 mph /  0.2 km/h 3.5 mph /  5.6 km/h 95 % 0.03 in /  0.76 mm
13:14 68.1 °F /  20.1 °C 66.6 °F /  19.2 °C 30.02 in /  1016.5 hPa Calm     95 % 0.03 in /  0.76 mm
13:19 68.1 °F /  20.1 °C 66.6 °F /  19.2 °C 30.02 in /  1016.5 hPa Calm     95 % 0.03 in /  0.76 mm
13:24 68.2 °F /  20.1 °C 66.7 °F /  19.3 °C 30.02 in /  1016.5 hPa Calm   1.0 mph /  1.6 km/h 95 % 0.03 in /  0.76 mm
13:29 68.3 °F /  20.2 °C 66.8 °F /  19.3 °C 30.02 in /  1016.5 hPa Calm     95 % 0.03 in /  0.76 mm
13:34 68.4 °F /  20.2 °C 66.9 °F /  19.4 °C 30.02 in /  1016.5 hPa Calm     95 % 0.03 in /  0.76 mm
13:39 68.5 °F /  20.3 °C 67.0 °F /  19.4 °C 30.02 in /  1016.5 hPa East 0.6 mph /  1 km/h 2.3 mph /  3.7 km/h 95 % 0.03 in /  0.76 mm
13:44 68.5 °F /  20.3 °C 67.0 °F /  19.4 °C 30.02 in /  1016.5 hPa Calm   1.2 mph /  1.9 km/h 95 % 0.02 in /  0.51 mm
13:49 68.5 °F /  20.3 °C 67.0 °F /  19.4 °C 30.02 in /  1016.5 hPa Calm     95 % 0.03 in /  0.76 mm
13:54 68.6 °F /  20.3 °C 67.1 °F /  19.5 °C 30.02 in /  1016.5 hPa East 1.1 mph /  1.8 km/h 1.2 mph /  1.9 km/h 95 % 0.03 in /  0.76 mm
13:59 68.5 °F /  20.3 °C 67.0 °F /  19.4 °C 30.02 in /  1016.5 hPa Calm     95 % 0.03 in /  0.76 mm
14:05 68.5 °F /  20.3 °C 66.7 °F /  19.3 °C 30.02 in /  1016.5 hPa Calm   2.3 mph /  3.7 km/h 94 % 0.02 in /  0.51 mm
14:10 68.5 °F /  20.3 °C 66.7 °F /  19.3 °C 30.02 in /  1016.5 hPa Calm     94 % 0.02 in /  0.51 mm
14:15 68.5 °F /  20.3 °C 66.7 °F /  19.3 °C 30.02 in /  1016.5 hPa Calm     94 % 0.02 in /  0.51 mm
14:20 68.5 °F /  20.3 °C 66.7 °F /  19.3 °C 30.02 in /  1016.5 hPa Calm   1.2 mph /  1.9 km/h 94 % 0.03 in /  0.76 mm
14:25 68.4 °F /  20.2 °C 66.6 °F /  19.2 °C 30.02 in /  1016.5 hPa SE 0.8 mph /  1.3 km/h 2.3 mph /  3.7 km/h 94 % 0.02 in /  0.51 mm
14:30 68.4 °F /  20.2 °C 66.6 °F /  19.2 °C 30.02 in /  1016.5 hPa SE 0.4 mph /  0.6 km/h 2.3 mph /  3.7 km/h 94 % 0.02 in /  0.51 mm
14:35 68.4 °F /  20.2 °C 66.6 °F /  19.2 °C 30.02 in /  1016.5 hPa Calm     94 % 0.02 in /  0.51 mm
14:40 68.4 °F /  20.2 °C 66.6 °F /  19.2 °C 30.02 in /  1016.5 hPa Calm     94 % 0.02 in /  0.51 mm
14:45 68.4 °F /  20.2 °C 66.6 °F /  19.2 °C 30.02 in /  1016.5 hPa SE 0.1 mph /  0.2 km/h 1.2 mph /  1.9 km/h 94 % 0.03 in /  0.76 mm
14:50 68.4 °F /  20.2 °C 66.6 °F /  19.2 °C 30.02 in /  1016.5 hPa Calm     94 % 0.02 in /  0.51 mm
14:55 68.4 °F /  20.2 °C 66.9 °F /  19.4 °C 30.01 in /  1016.1 hPa Calm   2.3 mph /  3.7 km/h 95 % 0.02 in /  0.51 mm
15:01 68.4 °F /  20.2 °C 66.9 °F /  19.4 °C 30.01 in /  1016.1 hPa Calm     95 % 0.02 in /  0.51 mm
15:06 68.4 °F /  20.2 °C 66.9 °F /  19.4 °C 30.01 in /  1016.1 hPa Calm   1.0 mph /  1.6 km/h 95 % 0.00 in /  0 mm
15:11 68.4 °F /  20.2 °C 66.9 °F /  19.4 °C 30.01 in /  1016.1 hPa Calm   1.0 mph /  1.6 km/h 95 % 0.00 in /  0 mm
15:16 68.4 °F /  20.2 °C 66.9 °F /  19.4 °C 30.00 in /  1015.8 hPa Calm   1.0 mph /  1.6 km/h 95 % 0.00 in /  0 mm
15:21 68.4 °F /  20.2 °C 66.9 °F /  19.4 °C 30.00 in /  1015.8 hPa Calm   1.0 mph /  1.6 km/h 95 % 0.00 in /  0 mm
15:26 68.3 °F /  20.2 °C 66.8 °F /  19.3 °C 29.99 in /  1015.5 hPa SE 1.0 mph /  1.6 km/h 3.0 mph /  4.8 km/h 95 % 0.00 in /  0 mm
15:31 68.3 °F /  20.2 °C 66.8 °F /  19.3 °C 29.98 in /  1015.1 hPa Calm   1.0 mph /  1.6 km/h 95 % 0.00 in /  0 mm
15:36 68.2 °F /  20.1 °C 66.7 °F /  19.3 °C 29.98 in /  1015.1 hPa Calm   2.0 mph /  3.2 km/h 95 % 0.00 in /  0 mm
15:40 68.2 °F /  20.1 °C 66.7 °F /  19.3 °C 29.98 in /  1015.1 hPa Calm   4.0 mph /  6.4 km/h 95 % 0.00 in /  0 mm
15:46 68.2 °F /  20.1 °C 66.7 °F /  19.3 °C 29.98 in /  1015.1 hPa Calm   2.0 mph /  3.2 km/h 95 % 0.00 in /  0 mm
15:51 68.4 °F /  20.2 °C 67.2 °F /  19.6 °C 29.98 in /  1015.1 hPa Calm   1.0 mph /  1.6 km/h 96 % 0.00 in /  0 mm
15:55 68.4 °F /  20.2 °C 67.2 °F /  19.6 °C 29.98 in /  1015.1 hPa Calm   1.2 mph /  1.9 km/h 96 % 0.02 in /  0.51 mm
16:00 68.4 °F /  20.2 °C 67.2 °F /  19.6 °C 29.98 in /  1015.1 hPa Calm     96 % 0.02 in /  0.51 mm
16:05 68.5 °F /  20.3 °C 67.3 °F /  19.6 °C 29.99 in /  1015.5 hPa Calm     96 % 0.02 in /  0.51 mm
16:10 68.5 °F /  20.3 °C 67.3 °F /  19.6 °C 29.99 in /  1015.5 hPa Calm     96 % 0.01 in /  0.25 mm
16:15 68.4 °F /  20.2 °C 67.2 °F /  19.6 °C 29.99 in /  1015.5 hPa ENE 0.6 mph /  1 km/h 1.2 mph /  1.9 km/h 96 % 0.01 in /  0.25 mm
16:20 68.4 °F /  20.2 °C 67.2 °F /  19.6 °C 29.99 in /  1015.5 hPa Calm     96 % 0.01 in /  0.25 mm
16:26 68.3 °F /  20.2 °C 67.1 °F /  19.5 °C 29.99 in /  1015.5 hPa Calm   2.0 mph /  3.2 km/h 96 % 0.00 in /  0 mm
16:31 68.2 °F /  20.1 °C 67.0 °F /  19.4 °C 29.99 in /  1015.5 hPa Calm   1.0 mph /  1.6 km/h 96 % 0.00 in /  0 mm
16:35 68.2 °F /  20.1 °C 67.0 °F /  19.4 °C 29.97 in /  1014.8 hPa Calm   1.0 mph /  1.6 km/h 96 % 0.00 in /  0 mm
16:40 68.3 °F /  20.2 °C 67.1 °F /  19.5 °C 29.97 in /  1014.8 hPa Calm   1.0 mph /  1.6 km/h 96 % 0.00 in /  0 mm
16:46 68.3 °F /  20.2 °C 67.1 °F /  19.5 °C 29.97 in /  1014.8 hPa Calm   1.0 mph /  1.6 km/h 96 % 0.00 in /  0 mm
16:50 68.2 °F /  20.1 °C 67.0 °F /  19.4 °C 29.96 in /  1014.4 hPa NE 0.6 mph /  1 km/h 2.0 mph /  3.2 km/h 96 % 0.01 in /  0.25 mm
16:55 68.2 °F /  20.1 °C 67.0 °F /  19.4 °C 29.95 in /  1014.1 hPa ESE 0.9 mph /  1.4 km/h 2.3 mph /  3.7 km/h 96 % 0.01 in /  0.25 mm
17:00 68.1 °F /  20.1 °C 66.9 °F /  19.4 °C 29.94 in /  1013.8 hPa ESE 0.6 mph /  1 km/h 2.0 mph /  3.2 km/h 96 % 0.01 in /  0.25 mm
17:05 68.0 °F /  20 °C 66.8 °F /  19.3 °C 29.95 in /  1014.1 hPa ESE 0.8 mph /  1.3 km/h 1.2 mph /  1.9 km/h 96 % 0.01 in /  0.25 mm
17:10 68.0 °F /  20 °C 66.8 °F /  19.3 °C 29.96 in /  1014.4 hPa ESE 0.1 mph /  0.2 km/h 2.3 mph /  3.7 km/h 96 % 0.01 in /  0.25 mm
17:15 68.0 °F /  20 °C 67.1 °F /  19.5 °C 29.96 in /  1014.4 hPa Calm     97 % 0.01 in /  0.25 mm
17:20 68.0 °F /  20 °C 66.8 °F /  19.3 °C 29.97 in /  1014.8 hPa ESE 0.2 mph /  0.3 km/h 1.2 mph /  1.9 km/h 96 % 0.01 in /  0.25 mm
17:25 68.0 °F /  20 °C 67.1 °F /  19.5 °C 29.97 in /  1014.8 hPa Calm   2.3 mph /  3.7 km/h 97 % 0.02 in /  0.51 mm
17:31 68.0 °F /  20 °C 67.1 °F /  19.5 °C 29.97 in /  1014.8 hPa Calm     97 % 0.00 in /  0 mm
17:35 68.0 °F /  20 °C 67.1 °F /  19.5 °C 29.97 in /  1014.8 hPa ENE 2.0 mph /  3.2 km/h 5.0 mph /  8 km/h 97 % 0.00 in /  0 mm
17:41 68.0 °F /  20 °C 67.1 °F /  19.5 °C 29.97 in /  1014.8 hPa Calm   3.0 mph /  4.8 km/h 97 % 0.00 in /  0 mm
17:46 68.0 °F /  20 °C 67.1 °F /  19.5 °C 29.97 in /  1014.8 hPa Calm   4.0 mph /  6.4 km/h 97 % 0.00 in /  0 mm
17:51 68.0 °F /  20 °C 67.1 °F /  19.5 °C 29.97 in /  1014.8 hPa NE 1.0 mph /  1.6 km/h 4.0 mph /  6.4 km/h 97 % 0.00 in /  0 mm
17:56 68.0 °F /  20 °C 67.1 °F /  19.5 °C 29.98 in /  1015.1 hPa Calm   3.0 mph /  4.8 km/h 97 % 0.00 in /  0 mm
18:01 68.0 °F /  20 °C 67.1 °F /  19.5 °C 29.98 in /  1015.1 hPa Calm     97 % 0.01 in /  0.25 mm
18:06 68.0 °F /  20 °C 67.1 °F /  19.5 °C 29.98 in /  1015.1 hPa Calm   2.3 mph /  3.7 km/h 97 % 0.01 in /  0.25 mm
18:11 68.1 °F /  20.1 °C 67.2 °F /  19.6 °C 29.98 in /  1015.1 hPa Calm   1.2 mph /  1.9 km/h 97 % 0.01 in /  0.25 mm
18:16 68.1 °F /  20.1 °C 67.2 °F /  19.6 °C 29.97 in /  1014.8 hPa NE 0.8 mph /  1.3 km/h 2.3 mph /  3.7 km/h 97 % 0.01 in /  0.25 mm
18:21 68.1 °F /  20.1 °C 67.2 °F /  19.6 °C 29.97 in /  1014.8 hPa NE 0.1 mph /  0.2 km/h 1.2 mph /  1.9 km/h 97 % 0.02 in /  0.51 mm
18:26 68.1 °F /  20.1 °C 67.2 °F /  19.6 °C 29.96 in /  1014.4 hPa NE 1.0 mph /  1.6 km/h 2.3 mph /  3.7 km/h 97 % 0.01 in /  0.25 mm
18:31 68.1 °F /  20.1 °C 67.2 °F /  19.6 °C 29.97 in /  1014.8 hPa NE 1.0 mph /  1.6 km/h 2.3 mph /  3.7 km/h 97 % 0.01 in /  0.25 mm
18:36 68.1 °F /  20.1 °C 67.2 °F /  19.6 °C 29.97 in /  1014.8 hPa NE 0.3 mph /  0.5 km/h 2.3 mph /  3.7 km/h 97 % 0.01 in /  0.25 mm
18:41 68.1 °F /  20.1 °C 67.2 °F /  19.6 °C 29.97 in /  1014.8 hPa ENE 2.4 mph /  3.9 km/h 3.5 mph /  5.6 km/h 97 % 0.01 in /  0.25 mm
18:46 68.0 °F /  20 °C 67.1 °F /  19.5 °C 29.96 in /  1014.4 hPa ENE 0.1 mph /  0.2 km/h 1.2 mph /  1.9 km/h 97 % 0.01 in /  0.25 mm
18:51 68.1 °F /  20.1 °C 67.2 °F /  19.6 °C 29.97 in /  1014.8 hPa ENE 0.3 mph /  0.5 km/h 1.2 mph /  1.9 km/h 97 % 0.01 in /  0.25 mm
18:56 68.0 °F /  20 °C 67.1 °F /  19.5 °C 29.97 in /  1014.8 hPa ENE 0.7 mph /  1.1 km/h 1.2 mph /  1.9 km/h 97 % 0.01 in /  0.25 mm
19:01 68.0 °F /  20 °C 67.1 °F /  19.5 °C 29.97 in /  1014.8 hPa ENE 0.3 mph /  0.5 km/h 1.2 mph /  1.9 km/h 97 % 0.01 in /  0.25 mm
19:06 68.0 °F /  20 °C 67.1 °F /  19.5 °C 29.97 in /  1014.8 hPa ENE 0.2 mph /  0.3 km/h 1.2 mph /  1.9 km/h 97 % 0.01 in /  0.25 mm
19:11 67.9 °F /  19.9 °C 67.0 °F /  19.4 °C 29.96 in /  1014.4 hPa ENE 0.3 mph /  0.5 km/h 2.3 mph /  3.7 km/h 97 % 0.01 in /  0.25 mm
19:16 67.8 °F /  19.9 °C 66.9 °F /  19.4 °C 29.97 in /  1014.8 hPa Calm   1.2 mph /  1.9 km/h 97 % 0.02 in /  0.51 mm
19:21 67.8 °F /  19.9 °C 66.9 °F /  19.4 °C 29.97 in /  1014.8 hPa SE 0.7 mph /  1.1 km/h 3.5 mph /  5.6 km/h 97 % 0.01 in /  0.25 mm
19:26 67.7 °F /  19.8 °C 66.8 °F /  19.3 °C 29.97 in /  1014.8 hPa Calm   1.2 mph /  1.9 km/h 97 % 0.01 in /  0.25 mm
19:31 67.7 °F /  19.8 °C 66.8 °F /  19.3 °C 29.97 in /  1014.8 hPa SE 0.2 mph /  0.3 km/h 1.2 mph /  1.9 km/h 97 % 0.01 in /  0.25 mm
19:36 67.7 °F /  19.8 °C 66.8 °F /  19.3 °C 29.97 in /  1014.8 hPa Calm     97 % 0.01 in /  0.25 mm
19:42 67.7 °F /  19.8 °C 66.8 °F /  19.3 °C 29.97 in /  1014.8 hPa Calm   1.2 mph /  1.9 km/h 97 % 0.01 in /  0.25 mm
19:47 67.6 °F /  19.8 °C 66.7 °F /  19.3 °C 29.97 in /  1014.8 hPa ESE 2.0 mph /  3.2 km/h 3.5 mph /  5.6 km/h 97 % 0.01 in /  0.25 mm
19:52 67.5 °F /  19.7 °C 66.6 °F /  19.2 °C 29.96 in /  1014.4 hPa SE 0.5 mph /  0.8 km/h 3.5 mph /  5.6 km/h 97 % 0.01 in /  0.25 mm
19:57 67.5 °F /  19.7 °C 66.6 °F /  19.2 °C 29.96 in /  1014.4 hPa SE 0.8 mph /  1.3 km/h 3.0 mph /  4.8 km/h 97 % 0.01 in /  0.25 mm
20:02 67.4 °F /  19.7 °C 66.5 °F /  19.2 °C 29.96 in /  1014.4 hPa SE 0.1 mph /  0.2 km/h 1.2 mph /  1.9 km/h 97 % 0.01 in /  0.25 mm
20:07 67.4 °F /  19.7 °C 66.5 °F /  19.2 °C 29.96 in /  1014.4 hPa SSE 0.4 mph /  0.6 km/h 3.0 mph /  4.8 km/h 97 % 0.01 in /  0.25 mm
20:12 67.3 °F /  19.6 °C 66.4 °F /  19.1 °C 29.96 in /  1014.4 hPa SE 0.2 mph /  0.3 km/h 1.2 mph /  1.9 km/h 97 % 0.01 in /  0.25 mm
20:17 67.3 °F /  19.6 °C 66.4 °F /  19.1 °C 29.96 in /  1014.4 hPa Calm     97 % 0.00 in /  0 mm
20:22 67.3 °F /  19.6 °C 66.4 °F /  19.1 °C 29.96 in /  1014.4 hPa SE 1.1 mph /  1.8 km/h 3.0 mph /  4.8 km/h 97 % 0.00 in /  0 mm
20:27 67.2 °F /  19.6 °C 66.3 °F /  19.1 °C 29.96 in /  1014.4 hPa Calm   1.2 mph /  1.9 km/h 97 % 0.01 in /  0.25 mm
20:32 67.2 °F /  19.6 °C 66.3 °F /  19.1 °C 29.95 in /  1014.1 hPa SE 0.4 mph /  0.6 km/h 2.3 mph /  3.7 km/h 97 % 0.01 in /  0.25 mm
20:37 67.1 °F /  19.5 °C 66.2 °F /  19 °C 29.95 in /  1014.1 hPa SE 1.3 mph /  2.1 km/h 2.3 mph /  3.7 km/h 97 % 0.01 in /  0.25 mm
20:42 67.1 °F /  19.5 °C 66.2 °F /  19 °C 29.94 in /  1013.8 hPa SE 0.1 mph /  0.2 km/h 1.2 mph /  1.9 km/h 97 % 0.01 in /  0.25 mm
20:47 67.0 °F /  19.4 °C 66.1 °F /  18.9 °C 29.94 in /  1013.8 hPa ESE 0.6 mph /  1 km/h 3.5 mph /  5.6 km/h 97 % 0.01 in /  0.25 mm
20:52 67.0 °F /  19.4 °C 66.1 °F /  18.9 °C 29.94 in /  1013.8 hPa Calm   1.2 mph /  1.9 km/h 97 % 0.01 in /  0.25 mm
20:57 66.9 °F /  19.4 °C 66.0 °F /  18.9 °C 29.94 in /  1013.8 hPa SE 0.1 mph /  0.2 km/h 2.3 mph /  3.7 km/h 97 % 0.01 in /  0.25 mm
21:02 66.9 °F /  19.4 °C 66.0 °F /  18.9 °C 29.94 in /  1013.8 hPa SE 0.7 mph /  1.1 km/h 3.0 mph /  4.8 km/h 97 % 0.01 in /  0.25 mm
21:07 66.9 °F /  19.4 °C 66.0 °F /  18.9 °C 29.95 in /  1014.1 hPa SE 0.1 mph /  0.2 km/h 2.3 mph /  3.7 km/h 97 % 0.01 in /  0.25 mm
21:12 66.8 °F /  19.3 °C 65.9 °F /  18.8 °C 29.95 in /  1014.1 hPa Calm     97 % 0.01 in /  0.25 mm
21:17 66.8 °F /  19.3 °C 65.9 °F /  18.8 °C 29.95 in /  1014.1 hPa SSE 1.4 mph /  2.3 km/h 3.5 mph /  5.6 km/h 97 % 0.01 in /  0.25 mm
21:22 66.8 °F /  19.3 °C 65.9 °F /  18.8 °C 29.95 in /  1014.1 hPa Calm   2.3 mph /  3.7 km/h 97 % 0.01 in /  0.25 mm
21:27 66.8 °F /  19.3 °C 65.9 °F /  18.8 °C 29.95 in /  1014.1 hPa Calm     97 % 0.00 in /  0 mm
21:33 66.8 °F /  19.3 °C 65.9 °F /  18.8 °C 29.96 in /  1014.4 hPa Calm     97 % 0.00 in /  0 mm
21:38 66.8 °F /  19.3 °C 65.9 °F /  18.8 °C 29.96 in /  1014.4 hPa Calm   3.5 mph /  5.6 km/h 97 % 0.00 in /  0 mm
21:43 66.8 °F /  19.3 °C 65.9 °F /  18.8 °C 29.96 in /  1014.4 hPa Calm     97 % 0.00 in /  0 mm
21:48 66.8 °F /  19.3 °C 65.9 °F /  18.8 °C 29.96 in /  1014.4 hPa SE 0.3 mph /  0.5 km/h 3.5 mph /  5.6 km/h 97 % 0.00 in /  0 mm
21:53 66.8 °F /  19.3 °C 65.9 °F /  18.8 °C 29.96 in /  1014.4 hPa Calm   1.2 mph /  1.9 km/h 97 % 0.00 in /  0 mm
21:58 66.8 °F /  19.3 °C 65.9 °F /  18.8 °C 29.96 in /  1014.4 hPa SE 0.1 mph /  0.2 km/h 1.2 mph /  1.9 km/h 97 % 0.00 in /  0 mm
22:03 66.8 °F /  19.3 °C 65.9 °F /  18.8 °C 29.96 in /  1014.4 hPa SE 0.5 mph /  0.8 km/h 3.5 mph /  5.6 km/h 97 % 0.00 in /  0 mm
22:08 66.8 °F /  19.3 °C 65.9 °F /  18.8 °C 29.96 in /  1014.4 hPa SE 0.7 mph /  1.1 km/h 4.6 mph /  7.4 km/h 97 % 0.00 in /  0 mm
22:13 66.8 °F /  19.3 °C 65.9 °F /  18.8 °C 29.96 in /  1014.4 hPa Calm   1.2 mph /  1.9 km/h 97 % 0.00 in /  0 mm
22:18 66.8 °F /  19.3 °C 65.9 °F /  18.8 °C 29.96 in /  1014.4 hPa Calm     97 % 0.00 in /  0 mm
22:23 66.8 °F /  19.3 °C 65.9 °F /  18.8 °C 29.96 in /  1014.4 hPa Calm     97 % 0.00 in /  0 mm
22:28 66.9 °F /  19.4 °C 66.0 °F /  18.9 °C 29.96 in /  1014.4 hPa Calm     97 % 0.00 in /  0 mm
22:33 66.9 °F /  19.4 °C 66.0 °F /  18.9 °C 29.95 in /  1014.1 hPa Calm     97 % 0.00 in /  0 mm
22:38 66.9 °F /  19.4 °C 66.0 °F /  18.9 °C 29.95 in /  1014.1 hPa Calm     97 % 0.00 in /  0 mm
22:43 67.0 °F /  19.4 °C 66.1 °F /  18.9 °C 29.95 in /  1014.1 hPa Calm     97 % 0.00 in /  0 mm
22:48 67.0 °F /  19.4 °C 66.1 °F /  18.9 °C 29.95 in /  1014.1 hPa Calm     97 % 0.00 in /  0 mm
22:53 67.0 °F /  19.4 °C 66.1 °F /  18.9 °C 29.95 in /  1014.1 hPa Calm     97 % 0.00 in /  0 mm
22:58 67.0 °F /  19.4 °C 66.1 °F /  18.9 °C 29.95 in /  1014.1 hPa Calm     97 % 0.00 in /  0 mm
23:03 67.0 °F /  19.4 °C 66.1 °F /  18.9 °C 29.95 in /  1014.1 hPa Calm     97 % 0.00 in /  0 mm
23:08 67.0 °F /  19.4 °C 66.1 °F /  18.9 °C 29.95 in /  1014.1 hPa Calm     97 % 0.00 in /  0 mm
23:13 67.0 °F /  19.4 °C 66.4 °F /  19.1 °C 29.94 in /  1013.8 hPa Calm     98 % 0.00 in /  0 mm
23:18 67.0 °F /  19.4 °C 66.4 °F /  19.1 °C 29.94 in /  1013.8 hPa Calm     98 % 0.00 in /  0 mm
23:23 67.0 °F /  19.4 °C 66.4 °F /  19.1 °C 29.94 in /  1013.8 hPa Calm     98 % 0.00 in /  0 mm
23:28 67.0 °F /  19.4 °C 66.4 °F /  19.1 °C 29.94 in /  1013.8 hPa Calm     98 % 0.00 in /  0 mm
23:33 67.1 °F /  19.5 °C 66.5 °F /  19.2 °C 29.94 in /  1013.8 hPa Calm     98 % 0.00 in /  0 mm
23:38 67.1 °F /  19.5 °C 66.5 °F /  19.2 °C 29.94 in /  1013.8 hPa Calm     98 % 0.00 in /  0 mm
23:43 67.0 °F /  19.4 °C 66.4 °F /  19.1 °C 29.93 in /  1013.4 hPa Calm     98 % 0.00 in /  0 mm
23:48 67.0 °F /  19.4 °C 66.4 °F /  19.1 °C 29.93 in /  1013.4 hPa Calm   1.2 mph /  1.9 km/h 98 % 0.00 in /  0 mm
23:53 67.0 °F /  19.4 °C 66.4 °F /  19.1 °C 29.93 in /  1013.4 hPa Calm   1.2 mph /  1.9 km/h 98 % 0.00 in /  0 mm
23:58 66.9 °F /  19.4 °C 66.3 °F /  19.1 °C 29.92 in /  1013.1 hPa Calm     98 % 0.00 in /  0 mm
Crab Meadow Weather
Compliments of Weather Underground - 3 mb

Script developed by  Jim McMurry - jmcmurry@mwt.net Adapted for the template by  Wim van der Kuil - Leuven-Template.eu

Weather Terms: Severe Thunderstorm Watch - Conditions are favorable for the development of severe thunderstorms in and close to the watch area. These watches are issued for large areas by the Storm Prediction Center in Norman, Oklahoma, and are usually valid for four to six hours.